Retour au catalogue

KUIPER-00601

ActifCommunicationsLEO
NORAD 69285·PAYLOAD·🇺🇸 United States

Lancé May 29, 2026 depuis Vandenberg Space Force Base

Loading…

Prochains Passages (prochaines 24 heures)

TLE

FraisSource: CelesTrak SupGP

Époque: Sep 14, 2026, 21:18 UTC

1 69285C 26118U   26257.88782407  .00004908  00000+0  64262-3 0  2574
2 69285  51.9029   4.0108 0000545  98.2248 182.5939 14.79917881    11

Suivez KUIPER-00601 en temps réel avec AllMySat

Download on the App Store